Tracking 25709 objects as of 23-May-2022
HD Live streaming from Space Station
objects crossing your sky now

COSMOS 2251 DEB

Track COSMOS 2251 DEB now!
10-day predictions


NORAD ID: 34879
Int'l Code: 1993-036ACS
Perigee: 768.0 km
Apogee: 1,571.1 km
Inclination: 73.9 °
Period: 108.6 minutes
Semi major axis: 7540 km
RCS: 0.0088 m2 (small)
Launch date: June 16, 1993
Source: Commonwealth of Independent States (former USSR) (CIS)
Launch site: PLESETSK MISSILE AND SPACE COMPLEX (PKMTR)

Note: This is SATELLITE DEBRIS
aabbcc
Your satellite tracking list
Your tracking list is empty




NASA's NSSDC Master Catalog

Two Line Element Set (TLE):
1 34879U 93036ACS 22142.44667148  .00002654  00000-0  28232-2 0  9999
2 34879  73.9150 160.3117 0532496 110.9976 254.8921 13.25854115410370
Source of the keplerian elements: AFSPC